Findlay, OH

4:15 PM EDT on April 23, 2017 (GMT -0400)
Findlay

Weather History for KFDY - October, 2010

Change the Weather History Date:

Saturday, October 30, 2010

  Actual Average Record
Temperature  
Mean Temperature - -  
Max Temperature - 57 °F 75 °F (1950)
Min Temperature - 37 °F 24 °F (1988)
Moisture  
Dew Point -    
Average Humidity    
Maximum Humidity    
Minimum Humidity    
Precipitation  
Precipitation 0.00 in - - ()
Wind  
Wind Speed - (North)    
Max Wind Speed -    
Max Gust Speed -    
Averages and records for this station are not official NWS values.
T = Trace of Precipitation, MM = Missing Value Source: NWS Daily Summary

Daily Weather History Graph

Daily Weather History Graph

Search for Another Location

Airport or City:

Trip Planner

Search our weather history database for the weather conditions in past years. The results will help you decide how hot, cold, wet, or windy it might be!

Date:

Astronomy

Oct. 30, 2010 Rise Set
Actual Time 8:03 AM EDT 6:32 PM EDT
Civil Twilight 7:34 AM EDT 7:01 PM EDT
Nautical Twilight 7:02 AM EDT 7:33 PM EDT
Astronomical Twilight 6:30 AM EDT 8:05 PM EDT
Moon 12:13 AM EDT (10/30) 2:38 PM EDT (10/30)
Length of Visible Light 11h 26m
Length of Day
10h 29m
Waning Gibbous, 48% of the Moon is Illuminated
Oct 30
Waning Gibbous
Nov 6
New
Nov 13
First Quarter
Nov 21
Full
Nov 28
Last Quarter

Hourly Weather History & Observations

Time (EDT) Temp. Windchill Dew Point Humidity Pressure Visibility Wind Dir Wind Speed Gust Speed Precip Events Conditions
12:53 AM 33.1 °F 27.7 °F 28.0 °F 82% 30.15 in 10.0 mi SSW 5.8 mph - N/A   Clear
1:53 AM 33.1 °F 26.1 °F 28.0 °F 82% 30.14 in 9.0 mi SSW 8.1 mph - N/A   Clear
2:53 AM 32.0 °F 24.8 °F 27.0 °F 82% 30.13 in 9.0 mi South 8.1 mph - N/A   Clear
3:53 AM 33.1 °F 25.5 °F 28.0 °F 82% 30.12 in 9.0 mi SSW 9.2 mph - N/A   Clear
4:53 AM 33.1 °F 26.9 °F 27.0 °F 78% 30.10 in 9.0 mi SSW 6.9 mph - N/A   Clear
5:53 AM 34.0 °F 26.0 °F 28.0 °F 79% 30.09 in 9.0 mi South 10.4 mph - N/A   Clear
6:53 AM 33.1 °F 26.9 °F 28.0 °F 82% 30.08 in 9.0 mi SSW 6.9 mph - N/A   Clear
7:53 AM 34.0 °F 26.0 °F 28.0 °F 79% 30.06 in 10.0 mi South 10.4 mph - N/A   Clear
8:53 AM 37.0 °F 29.8 °F 28.9 °F 73% 30.04 in 9.0 mi SSW 10.4 mph - N/A   Clear
9:53 AM 42.1 °F 34.5 °F 30.0 °F 62% 30.00 in 10.0 mi SSW 15.0 mph - N/A   Clear
10:53 AM 46.0 °F 39.0 °F 30.0 °F 54% 29.98 in 10.0 mi SSW 17.3 mph 24.2 mph N/A   Clear
11:53 AM 52.0 °F - 28.0 °F 40% 29.95 in 10.0 mi SW 19.6 mph 26.5 mph N/A   Clear
12:53 PM 55.9 °F - 28.9 °F 36% 29.88 in 10.0 mi SSW 18.4 mph 26.5 mph N/A   Clear
1:53 PM 57.0 °F - 25.0 °F 29% 29.83 in 10.0 mi SW 23.0 mph 34.5 mph N/A   Clear
2:53 PM 60.1 °F - 26.1 °F 27% 29.78 in 10.0 mi SW 25.3 mph 32.2 mph N/A   Clear
3:53 PM 61.0 °F - 21.9 °F 22% 29.76 in 10.0 mi SW 21.9 mph 31.1 mph N/A   Clear
4:53 PM 61.0 °F - 23.0 °F 23% 29.74 in 10.0 mi SW 19.6 mph 29.9 mph N/A   Clear
5:53 PM 57.9 °F - 24.1 °F 27% 29.75 in 10.0 mi SW 13.8 mph 21.9 mph N/A   Clear
6:53 PM 55.0 °F - 26.1 °F 33% 29.77 in 10.0 mi SW 10.4 mph - N/A   Clear
7:53 PM 53.1 °F - 26.1 °F 35% 29.79 in 10.0 mi SW 9.2 mph - N/A   Clear
8:53 PM 53.1 °F - 27.0 °F 37% 29.80 in 10.0 mi WSW 10.4 mph - N/A   Clear
9:53 PM 52.0 °F - 28.9 °F 41% 29.79 in 10.0 mi WSW 11.5 mph - N/A   Clear
10:53 PM 48.9 °F - 28.9 °F 46% 29.81 in 10.0 mi West 9.2 mph - N/A   Clear
11:53 PM 45.0 °F 41.2 °F 30.0 °F 56% 29.83 in 10.0 mi West 6.9 mph - N/A   Clear